| time (UTC) | temp C | wind direction | speed KPH | gust KPH | rain 1hr cm | rain 24hr cm | rain mn cm | humidity % | barometer mb |
| 20260902000305 | 27 | 31 | 3.2 | 4.8 | 0.00 | 0.20 | 0.00 | 32 | 1013.3 |
| 20260901234805 | 28 | 82 | 8.0 | 12.9 | 0.00 | 0.20 | 0.00 | 29 | 1013.3 |
| 20260901234305 | 28 | 60 | 4.8 | 9.7 | 0.00 | 0.20 | 0.00 | 30 | 1013.3 |
| 20260901233805 | 29 | 57 | 4.8 | 11.3 | 0.00 | 0.20 | 0.00 | 28 | 1013.3 |
| 20260901233305 | 29 | 62 | 4.8 | 14.5 | 0.00 | 0.20 | 0.00 | 29 | 1013.3 |
| 20260901232805 | 29 | 78 | 6.4 | 11.3 | 0.00 | 0.20 | 0.00 | 29 | 1013.3 |
| 20260901231304 | 30 | 282 | 1.6 | 8.0 | 0.00 | 0.20 | 0.00 | 28 | 1013.3 |
| 20260901230805 | 30 | 323 | 4.8 | 11.3 | 0.00 | 0.20 | 0.00 | 27 | 1013.3 |
| 20260901225804 | 31 | 14 | 4.8 | 9.7 | 0.00 | 0.20 | 0.00 | 26 | 1013.3 |
| 20260901224805 | 31 | 81 | 3.2 | 8.0 | 0.00 | 0.20 | 0.00 | 29 | 1013.3 |
| 20260901224304 | 31 | 91 | 4.8 | 19.3 | 0.00 | 0.20 | 0.00 | 26 | 1013.3 |
| 20260901221804 | 31 | 166 | 9.7 | 19.3 | 0.00 | 0.20 | 0.00 | 25 | 1013.3 |
| 20260901220304 | 29 | 108 | 19.3 | 41.8 | 0.00 | 0.20 | 0.00 | 30 | 1013.3 |
| 20260901215805 | 29 | 176 | 9.7 | 27.4 | 0.00 | 0.20 | 0.00 | 30 | 1013.3 |
| 20260901214804 | 28 | 230 | 8.0 | 12.9 | 0.00 | 0.20 | 0.00 | 30 | 1013.3 |
| 20260901214305 | 28 | 223 | 8.0 | 12.9 | 0.00 | 0.20 | 0.00 | 30 | 1013.3 |
| 20260901213305 | 29 | 256 | 4.8 | 12.9 | 0.00 | 0.20 | 0.00 | 28 | 1013.3 |
| 20260901212805 | 30 | 145 | 8.0 | 16.1 | 0.00 | 0.20 | 0.00 | 29 | 1013.3 |
| 20260901212306 | 29 | 172 | 9.7 | 14.5 | 0.00 | 0.20 | 0.00 | 30 | 1013.3 |
| 20260901211804 | 29 | 265 | 3.2 | 11.3 | 0.00 | 0.20 | 0.00 | 28 | 1013.3 |
| 20260901205306 | 31 | 94 | 8.0 | 16.1 | 0.00 | 0.20 | 0.00 | 28 | 1013.3 |
| 20260901204305 | 31 | 161 | 8.0 | 14.5 | 0.00 | 0.20 | 0.00 | 31 | 1013.3 |
| 20260901203804 | 30 | 170 | 9.7 | 14.5 | 0.00 | 0.20 | 0.00 | 28 | 1013.3 |
| 20260901203304 | 31 | 163 | 8.0 | 14.5 | 0.00 | 0.20 | 0.00 | 27 | 1013.3 |
| 20260901202306 | 31 | 155 | 11.3 | 19.3 | 0.00 | 0.20 | 0.00 | 28 | 1013.3 |
| 20260901201804 | 31 | 51 | 4.8 | 19.3 | 0.00 | 0.20 | 0.00 | 27 | 1013.3 |
| 20260901200805 | 31 | 137 | 8.0 | 19.3 | 0.00 | 0.20 | 0.00 | 29 | 1013.3 |
| 20260901200304 | 31 | 103 | 9.7 | 19.3 | 0.00 | 0.20 | 0.00 | 29 | 1013.3 |
| 20260901195306 | 31 | 103 | 14.5 | 19.3 | 0.00 | 0.20 | 0.00 | 28 | 1013.3 |
| 20260901194804 | 30 | 163 | 9.7 | 14.5 | 0.00 | 0.20 | 0.00 | 28 | 1013.3 |
| 20260901194305 | 31 | 119 | 9.7 | 19.3 | 0.00 | 0.20 | 0.00 | 29 | 1013.3 |
| 20260901192804 | 30 | 144 | 9.7 | 19.3 | 0.00 | 0.20 | 0.00 | 31 | 1013.3 |
| 20260901192306 | 30 | 150 | 11.3 | 19.3 | 0.00 | 0.20 | 0.00 | 32 | 1013.3 |
| 20260901190305 | 29 | 76 | 9.7 | 14.5 | 0.00 | 0.20 | 0.00 | 31 | 1013.3 |
| 20260901185805 | 29 | 168 | 9.7 | 19.3 | 0.00 | 0.20 | 0.00 | 34 | 1013.3 |
| 20260901185306 | 29 | 149 | 11.3 | 22.5 | 0.00 | 0.20 | 0.00 | 37 | 1013.3 |
| 20260901184805 | 28 | 119 | 9.7 | 19.3 | 0.00 | 0.20 | 0.00 | 37 | 1013.3 |
| 20260901183304 | 28 | 117 | 11.3 | 19.3 | 0.00 | 0.20 | 0.00 | 38 | 1013.3 |
| 20260901182804 | 28 | 130 | 4.8 | 22.5 | 0.00 | 0.20 | 0.00 | 39 | 1013.3 |
| 20260901181304 | 27 | 161 | 9.7 | 12.9 | 0.00 | 0.20 | 0.00 | 36 | 1013.3 |
| 20260901180804 | 27 | 148 | 9.7 | 19.3 | 0.00 | 0.20 | 0.00 | 40 | 1013.3 |
| 20260901175805 | 27 | 132 | 8.0 | 12.9 | 0.00 | 0.20 | 0.00 | 44 | 1013.3 |
| 20260901174305 | 27 | 99 | 4.8 | 9.7 | 0.00 | 0.20 | 0.00 | 47 | 1013.3 |
| 20260901173804 | 27 | 100 | 9.7 | 14.5 | 0.00 | 0.20 | 0.00 | 48 | 1013.3 |
| 20260901173304 | 26 | 149 | 9.7 | 19.3 | 0.00 | 0.20 | 0.00 | 48 | 1013.3 |
| 20260901172804 | 26 | 134 | 6.4 | 14.5 | 0.00 | 0.20 | 0.00 | 50 | 1013.3 |
| 20260901172305 | 26 | 175 | 8.0 | 16.1 | 0.00 | 0.20 | 0.00 | 49 | 1013.3 |
| 20260901170804 | 25 | 201 | 4.8 | 11.3 | 0.00 | 0.20 | 0.00 | 51 | 1013.3 |
| 20260901163304 | 23 | 160 | 8.0 | 12.9 | 0.00 | 0.20 | 0.00 | 62 | 1013.3 |
| 20260901162306 | 22 | 112 | 8.0 | 12.9 | 0.00 | 0.20 | 0.00 | 64 | 1013.3 |
| 20260901161804 | 22 | 169 | 8.0 | 16.1 | 0.00 | 0.20 | 0.00 | 70 | 1013.3 |
| 20260901160804 | 20 | 174 | 3.2 | 4.8 | 0.00 | 0.20 | 0.00 | 73 | 1013.3 |
| 20260901155306 | 19 | 179 | 0.0 | 4.8 | 0.00 | 0.20 | 0.00 | 74 | 1013.3 |
| 20260901154805 | 19 | 179 | 4.8 | 8.0 | 0.00 | 0.20 | 0.00 | 74 | 1013.3 |
| 20260901153804 | 20 | 170 | 6.4 | 8.0 | 0.00 | 0.20 | 0.00 | 75 | 1013.3 |
| 20260901153304 | 19 | 166 | 1.6 | 4.8 | 0.00 | 0.20 | 0.00 | 75 | 1013.3 |
| 20260901151804 | 19 | 32 | 0.0 | 0.0 | 0.00 | 0.20 | 0.00 | 76 | 1013.3 |
| 20260901151304 | 18 | 253 | 0.0 | 1.6 | 0.00 | 0.20 | 0.00 | 76 | 1013.3 |
| 20260901150804 | 18 | 0 | 0.0 | 0.0 | 0.00 | 0.20 | 0.00 | 76 | 1013.3 |
| 20260901145306 | 18 | 304 | 1.6 | 8.0 | 0.00 | 0.20 | 0.00 | 79 | 1013.3 |
| 20260901144305 | 18 | 226 | 0.0 | 3.2 | 0.00 | 0.20 | 0.00 | 80 | 1013.3 |
| 20260901143305 | 18 | 201 | 1.6 | 4.8 | 0.00 | 0.20 | 0.00 | 80 | 1013.3 |
| 20260901142306 | 17 | 232 | 1.6 | 4.8 | 0.00 | 0.20 | 0.00 | 81 | 1013.3 |
| 20260901141805 | 17 | 254 | 0.0 | 3.2 | 0.00 | 0.20 | 0.00 | 81 | 1013.3 |
| 20260901141305 | 17 | 198 | 3.2 | 4.8 | 0.00 | 0.20 | 0.00 | 81 | 1013.3 |
| 20260901135305 | 17 | 176 | 0.0 | 0.0 | 0.00 | 0.20 | 0.00 | 83 | 1013.3 |
| 20260901134804 | 17 | 176 | 0.0 | 3.2 | 0.00 | 0.20 | 0.00 | 83 | 1013.3 |
| 20260901133304 | 16 | 188 | 3.2 | 8.0 | 0.00 | 0.20 | 0.00 | 85 | 1013.3 |
| 20260901131304 | 16 | 169 | 1.6 | 8.0 | 0.00 | 0.20 | 0.00 | 86 | 1013.3 |
| 20260901125804 | 16 | 283 | 0.0 | 3.2 | 0.00 | 0.20 | 0.00 | 86 | 1013.3 |
| 20260901124804 | 15 | 207 | 0.0 | 0.0 | 0.00 | 0.20 | 0.00 | 86 | 1013.3 |
| 20260901123804 | 15 | 207 | 0.0 | 0.0 | 0.00 | 0.20 | 0.00 | 86 | 1013.3 |
| 20260901123304 | 15 | 207 | 0.0 | 0.0 | 0.00 | 0.20 | 0.00 | 86 | 1013.3 |
| 20260901122804 | 16 | 207 | 0.0 | 1.6 | 0.00 | 0.20 | 0.00 | 85 | 1013.3 |
| 20260901114804 | 16 | 227 | 1.6 | 8.0 | 0.00 | 0.20 | 0.00 | 82 | 1014.3 |
| 20260901113804 | 16 | 197 | 3.2 | 4.8 | 0.00 | 0.20 | 0.00 | 83 | 1014.3 |
| 20260901111804 | 16 | 180 | 4.8 | 9.7 | 0.00 | 0.20 | 0.00 | 84 | 1014.3 |
| 20260901111304 | 16 | 190 | 4.8 | 9.7 | 0.00 | 0.20 | 0.00 | 85 | 1014.3 |
| 20260901105305 | 16 | 186 | 1.6 | 4.8 | 0.00 | 0.20 | 0.00 | 86 | 1014.3 |
| 20260901103305 | 16 | 181 | 3.2 | 4.8 | 0.00 | 0.20 | 0.00 | 88 | 1014.3 |
| 20260901102805 | 16 | 171 | 3.2 | 8.0 | 0.00 | 0.20 | 0.00 | 88 | 1014.3 |
| 20260901101304 | 16 | 173 | 3.2 | 8.0 | 0.00 | 0.20 | 0.00 | 89 | 1014.3 |
| 20260901100304 | 16 | 167 | 3.2 | 4.8 | 0.00 | 0.20 | 0.00 | 89 | 1014.3 |
| 20260901095804 | 16 | 174 | 1.6 | 4.8 | 0.00 | 0.20 | 0.00 | 89 | 1014.3 |
| 20260901093304 | 16 | 202 | 0.0 | 0.0 | 0.00 | 0.20 | 0.00 | 88 | 1014.3 |
| 20260901092305 | 16 | 202 | 0.0 | 0.0 | 0.00 | 0.20 | 0.00 | 87 | 1014.3 |
| 20260901091804 | 16 | 202 | 0.0 | 1.6 | 0.00 | 0.20 | 0.00 | 87 | 1014.3 |
| 20260901091304 | 16 | 202 | 0.0 | 1.6 | 0.00 | 0.20 | 0.00 | 86 | 1014.3 |
| 20260901090804 | 16 | 202 | 0.0 | 0.0 | 0.00 | 0.20 | 0.00 | 86 | 1014.3 |
| 20260901090304 | 17 | 202 | 0.0 | 3.2 | 0.00 | 0.20 | 0.00 | 85 | 1014.3 |
| 20260901084804 | 17 | 210 | 1.6 | 4.8 | 0.00 | 0.20 | 0.00 | 87 | 1014.3 |
| 20260901084304 | 17 | 249 | 1.6 | 3.2 | 0.00 | 0.20 | 0.00 | 87 | 1014.3 |
| 20260901083804 | 16 | 273 | 3.2 | 8.0 | 0.00 | 0.20 | 0.00 | 87 | 1014.3 |
| 20260901082804 | 17 | 63 | 0.0 | 0.0 | 0.00 | 0.20 | 0.00 | 86 | 1014.3 |
| 20260901081304 | 17 | 63 | 0.0 | 1.6 | 0.00 | 0.20 | 0.00 | 86 | 1014.3 |
| 20260901080804 | 17 | 63 | 0.0 | 1.6 | 0.00 | 0.20 | 0.00 | 86 | 1014.3 |
| 20260901080304 | 17 | 63 | 0.0 | 1.6 | 0.00 | 0.20 | 0.00 | 86 | 1014.3 |
| 20260901075307 | 17 | 63 | 0.0 | 3.2 | 0.00 | 0.20 | 0.00 | 85 | 1014.3 |
| 20260901074304 | 17 | 63 | 0.0 | 0.0 | 0.00 | 0.20 | 0.00 | 85 | 1014.3 |
| 20260901073804 | 17 | 63 | 0.0 | 1.6 | 0.00 | 0.20 | 0.00 | 85 | 1014.3 |
| 20260901072309 | 17 | 63 | 3.2 | 4.8 | 0.00 | 0.20 | 0.00 | 83 | 1014.3 |
| 20260901071304 | 17 | 206 | 3.2 | 4.8 | 0.00 | 0.20 | 0.00 | 84 | 1014.3 |
| 20260901070804 | 17 | 202 | 3.2 | 4.8 | 0.00 | 0.20 | 0.00 | 84 | 1014.3 |
| 20260901065804 | 17 | 116 | 0.0 | 3.2 | 0.00 | 0.20 | 0.00 | 84 | 1014.3 |
| 20260901064804 | 17 | 113 | 0.0 | 3.2 | 0.00 | 0.20 | 0.00 | 83 | 1014.3 |
| 20260901064304 | 17 | 111 | 3.2 | 8.0 | 0.00 | 0.20 | 0.00 | 83 | 1014.3 |
| 20260901063804 | 17 | 111 | 3.2 | 4.8 | 0.00 | 0.20 | 0.00 | 83 | 1014.3 |
| 20260901062309 | 17 | 171 | 6.4 | 11.3 | 0.00 | 0.20 | 0.00 | 82 | 1014.3 |
| 20260901061804 | 17 | 169 | 8.0 | 11.3 | 0.00 | 0.20 | 0.00 | 81 | 1014.3 |
| 20260901061304 | 17 | 209 | 8.0 | 19.3 | 0.00 | 0.20 | 0.00 | 81 | 1014.3 |
| 20260901060304 | 17 | 173 | 4.8 | 8.0 | 0.00 | 0.20 | 0.00 | 82 | 1014.3 |
| 20260901055804 | 17 | 211 | 3.2 | 4.8 | 0.00 | 0.20 | 0.20 | 82 | 1014.3 |
| 20260901054803 | 17 | 259 | 1.6 | 3.2 | 0.00 | 0.20 | 0.20 | 82 | 1014.3 |
| 20260901054304 | 17 | 259 | 0.0 | 3.2 | 0.00 | 0.20 | 0.20 | 81 | 1014.3 |
| 20260901053804 | 17 | 259 | 0.0 | 3.2 | 0.00 | 0.20 | 0.20 | 81 | 1014.3 |
| 20260901053304 | 17 | 259 | 1.6 | 4.8 | 0.00 | 0.20 | 0.20 | 82 | 1014.3 |
| 20260901052804 | 17 | 259 | 0.0 | 3.2 | 0.00 | 0.20 | 0.20 | 81 | 1014.3 |
| 20260901051804 | 17 | 259 | 3.2 | 4.8 | 0.00 | 0.20 | 0.20 | 81 | 1014.3 |
| 20260901051304 | 17 | 250 | 1.6 | 4.8 | 0.00 | 0.20 | 0.20 | 81 | 1014.3 |
| 20260901050804 | 17 | 263 | 3.2 | 8.0 | 0.00 | 0.20 | 0.20 | 81 | 1014.3 |
| 20260901050304 | 17 | 302 | 1.6 | 8.0 | 0.00 | 0.20 | 0.20 | 80 | 1014.3 |
| 20260901045306 | 17 | 270 | 4.8 | 9.7 | 0.00 | 0.20 | 0.20 | 79 | 1014.3 |
| 20260901044304 | 17 | 311 | 4.8 | 11.3 | 0.00 | 0.20 | 0.20 | 77 | 1014.3 |
| 20260901043804 | 17 | 309 | 3.2 | 8.0 | 0.00 | 0.20 | 0.20 | 77 | 1014.3 |
| 20260901042804 | 18 | 248 | 3.2 | 8.0 | 0.00 | 0.20 | 0.20 | 74 | 1014.3 |
| 20260901040804 | 17 | 188 | 4.8 | 11.3 | 0.03 | 0.20 | 0.20 | 77 | 1014.3 |
| 20260901035803 | 17 | 27 | 6.4 | 11.3 | 0.05 | 0.20 | 0.20 | 81 | 1014.3 |
| 20260901035305 | 17 | 29 | 3.2 | 4.8 | 0.05 | 0.20 | 0.20 | 82 | 1014.3 |
| 20260901034804 | 17 | 353 | 3.2 | 8.0 | 0.05 | 0.20 | 0.20 | 83 | 1014.3 |
| 20260901033804 | 17 | 288 | 4.8 | 9.7 | 0.05 | 0.20 | 0.20 | 81 | 1014.3 |
| 20260901032803 | 17 | 245 | 9.7 | 16.1 | 0.05 | 0.20 | 0.20 | 81 | 1014.3 |
| 20260901031805 | 17 | 257 | 8.0 | 12.9 | 0.03 | 0.18 | 0.18 | 79 | 1014.3 |
| 20260901031304 | 17 | 238 | 6.4 | 11.3 | 0.03 | 0.18 | 0.18 | 80 | 1014.3 |
| 20260901024804 | 20 | 218 | 12.9 | 24.1 | 0.00 | 0.15 | 0.15 | 64 | 1014.3 |
| 20260901024304 | 20 | 227 | 11.3 | 19.3 | 0.00 | 0.15 | 0.15 | 67 | 1014.3 |
| 20260901023303 | 20 | 225 | 6.4 | 16.1 | 0.00 | 0.15 | 0.15 | 69 | 1014.3 |
| 20260901022306 | 19 | 230 | 4.8 | 9.7 | 0.00 | 0.15 | 0.15 | 75 | 1014.3 |
| 20260901021303 | 19 | 0 | 3.2 | 4.8 | 0.03 | 0.15 | 0.15 | 73 | 1014.3 |
| 20260901020804 | 19 | 17 | 3.2 | 4.8 | 0.08 | 0.15 | 0.15 | 72 | 1014.3 |
| 20260901015803 | 19 | 353 | 4.8 | 16.1 | 0.15 | 0.15 | 0.15 | 73 | 1014.3 |
| 20260901014804 | 18 | 326 | 9.7 | 16.1 | 0.15 | 0.15 | 0.15 | 76 | 1014.3 |
| 20260901012804 | 17 | 321 | 1.6 | 4.8 | 0.15 | 0.15 | 0.15 | 82 | 1014.3 |
| 20260901011304 | 19 | 282 | 9.7 | 24.1 | 0.13 | 0.13 | 0.13 | 69 | 1014.3 |
| 20260901010304 | 22 | 296 | 8.0 | 37.0 | 0.03 | 0.03 | 0.03 | 54 | 1013.5 |
| 20260901005805 | 25 | 260 | 11.3 | 33.8 | 0.00 | 0.00 | 0.00 | 42 | 1013.5 |
| 20260901002803 | 27 | 90 | 6.4 | 19.3 | 0.00 | 0.00 | 0.00 | 31 | 1013.5 |
| 20260901002305 | 27 | 93 | 6.4 | 14.5 | 0.00 | 0.00 | 0.00 | 31 | 1013.5 |
| 20260901001304 | 27 | 80 | 8.0 | 20.9 | 0.00 | 0.00 | 0.00 | 30 | 1013.5 |